Regional Weather Roundup
Issued by NWS New Orleans/Baton Rouge, LA

Home | Current Version | Previous Version | Text Only | Print | Product List | Glossary On
Versions: 1 2 3 4 5 6 7 8 9 10 11 12 13 14 15 16 17 18 19 20 21 22 23 24 25 26 27 28 29 30 31 32 33 34 35 36 37 38 39 40 41 42 43 44 45 46 47 48 49 50
303
ASUS44 KLIX 270511
RWRLIX
NEW ORLEANS REGIONAL WEATHER ROUNDUP
NATIONAL WEATHER SERVICE NEW ORLEANS LA
1200 AM CDT FRI MAR 27 2015

NOTE: "FAIR" INDICATES FEW OR NO CLOUDS BELOW 12,000 FEET WITH NO
      SIGNIFICANT WEATHER AND/OR OBSTRUCTIONS TO VISIBILITY.
      SKY/WX - SKY CONDITION AND SIGNIFICANT WEATHER.
      TMP - AIR TEMPERATURE.     DP    - DEWPOINT TEMPERATURE.
      RH  - RELATIVE HUMIDITY.   PRES  - PRESSURE.
      HI  - HEAT INDEX.          WCI   - WIND CHILL INDEX.

*  THESE STATIONS ARE NOT NWS OR FAA STATIONS AND ARE NOT UNDER
   NWS QUALITY CONTROL.

LAZ038-040-048-061>063-065>067-069-270600-
SOUTHEAST LOUISIANA

CITY           SKY/WX    TMP DP  RH WIND       PRES   REMARKS
N.O. AUDUBON     N/A     61 N/A N/A MISG        N/A
N.O. INTL ARPT CLOUDY    61  56  83 NW18G28   29.93R
N.O. LAKEFRONT CLOUDY    63  58  83 N26       29.92R
SLIDELL        CLOUDY    59  56  89 N13G21    29.91R
BATON ROUGE    CLOUDY    55  48  77 N9G18     29.99R
BOOTHVILLE     MOCLDY    63  62  97 W3        29.90F FOG
BELLE CHASSE   CLOUDY    65  61  87 NW12G22   29.90R FOG
BOGALUSA*        N/A     57  52  82 N13       29.96R
GALLIANO*      CLOUDY    54  54  97 MISG      29.91S
NEW ROADS*     CLOUDY    54  48  79 NW15      30.02R
GONZALES*      CLOUDY    57  54  87 NW12G20   29.98R
HAMMOND*       CLOUDY    57  52  82 N16G23    29.97R
HOUMA*         CLOUDY    59  58  96 NW14G21   29.94R FOG
PORT FOURCHON* CLOUDY    68  66  94 NW6       29.94S

$$

MSZ070-080>082-270600-
SOUTHERN MISSISSIPPI

CITY           SKY/WX    TMP DP  RH WIND       PRES   REMARKS
MCCOMB         CLOUDY    53  47  79 N14G24    29.96F
GULFPORT       CLOUDY    64  60  87 W8        29.87S
BILOXI         CLOUDY    64  61  90 W6        29.87S
PASCAGOULA     MOCLDY    63  60  90 W5        29.86F

$$

COASTAL OBSERVATIONS
LAKE AND NEARSHORE STATIONS

STATION/POSITION TIME  TEMP    WIND        PRES    WAVE
                       AIR SEA DIR/SP/G            HT/PER
                 (UTC) (F)     (DEG/KT/KT) (MB)    (FT/S)
PASCAGOULA       0400   66     280/  7/ 11 1010.9
WAVELAND YACHT   0400   63 70  280/  5/  8 1011.5
GRAND ISLE       0400   67 70  290/  9/ 10 1012.3
SOUTHWEST PASS   0400   60 51  230/ 15/ 15 1013.1
NEW CANAL        0400          260/  7/  9 1012.8
SHELL BEACH      0400   63 71  240/  6/  7 1012.2

OFFSHORE STATIONS

STATION/POSITION TIME  TEMP    WIND        PRES    WAVE
                       AIR SEA DIR/SP/G            HT/PER
                 (UTC) (F)     (DEG/KT/KT) (MB)    (FT/S)
64 S DAUPHIN ISL 0450   71 73  270/ 19/ 21 1011.9    4/ 7

$$




USA.gov is the U.S. government's official web portal to all federal, state and local government web resources and services.